TDRS 3

Last updated on Tue Oct 14 2025 00:02:39 GMT+0000 (Coordinated Universal Time)

1 19548U 88091B 25286.48080560 -.00000308 00000+0 00000+0 0 9997 2 19548 12.7907 342.6280 0038792 340.7884 183.0648 1.00276483122919
UTC large
Height (km)
Speed (km/s)
/
Latitude / Longitude
Inclination (degrees)
Orbital Period (minutes)
Azimuth
Elevation
Range (km)
Doppler Factor

Next 0 passes for location: London (51.5072 / 0.1276)

Sorry there are no passes over London.